Home > Weather > Farsund > Past weeks

Flag for Norway Past Weather in Farsund, Norway — Yesterday and Last 2 Weeks

Now
57 °F

Overcast.


Feels Like: 55 °F
Forecast: 54 / 63 °F
Wind: 8 mph from Southeast

Location: Lista Fyr

Current Time: May 28, 2016 at 12:09:17 PM

Latest Report: May 28, 2016 at 11:00 AM


Visibility: 19 mi

Pressure: 30.14 "Hg

Humidity: 86%

Dew Point: 53 °F

Location of FarsundLocation

Past Weather in Farsund — Graph

°F

Farsund Temperature Yesterday

Maximum temperature yesterday: 58 °F (at 11:00 AM)
Minimum temperature yesterday: 48 °F (at 6:00 AM)
Average temperature yesterday: 54 °F

High & Low Weather Summary for the Past Weeks

 TemperatureHumidityPressure
High64 °F (May 25, 12:00 PM)100% (May 18, 8:00 PM)30.16 "Hg (May 18, 8:00 PM)
Low42 °F (May 15, 5:00 AM)41% (May 25, 11:00 AM)29.65 "Hg (May 13, 7:00 PM)
Average51 °F82%29.88 "Hg
* Reported May 13 11:00 AM — May 28 11:00 AM, Farsund, Weather by CustomWeather, © 2016

Note: Actual official high and low records may vary slightly from our data, if they occured in-between our weather recording intervals... More about our weather records

Advertising

Farsund Weather History for the Previous 24 Hours

Scroll right to see more
 ConditionsComfort  
Time TempWeatherWind HumidityBarometerVisibility
11:00 AM
Sat, May 28
57 °FOvercast.8 mph86%30.14 "Hg19 mi
10:00 AM56 °FCool.6 mph82%30.15 "HgN/A
9:00 AM57 °FCool.5 mph79%30.15 "HgN/A
8:00 AM56 °FOvercast.6 mph80%30.14 "Hg19 mi
7:00 AM55 °FCool.3 mph82%30.14 "HgN/A
6:00 AM53 °FCool.5 mph83%30.14 "HgN/A
5:00 AM55 °FCool.5 mph78%30.15 "HgN/A
4:00 AM53 °FCool.5 mph92%30.15 "HgN/A
3:00 AM53 °FCool.5 mph95%30.14 "HgN/A
2:00 AM53 °FCool.3 mph97%30.14 "HgN/A
1:00 AM53 °FCool.2 mph96%30.14 "HgN/A
12:00 AM53 °FCool.2 mph96%30.14 "HgN/A
11:00 PM
Fri, May 27
55 °FCool.3 mph91%30.14 "HgN/A
10:00 PM55 °FCool.5 mph100%30.13 "HgN/A
9:00 PM55 °FCool.2 mph93%30.13 "HgN/A
8:00 PM57 °FPassing clouds.6 mph81%30.12 "Hg19 mi
7:00 PM58 °FCool.6 mph68%30.13 "HgN/A
6:00 PM58 °FCool.5 mph77%30.13 "HgN/A
5:00 PM58 °FCool.6 mph75%30.14 "HgN/A
4:00 PM58 °FCool.7 mph81%30.15 "HgN/A
3:00 PM58 °FCool.6 mph85%30.15 "HgN/A
2:00 PM58 °FPartly sunny.3 mph79%30.16 "Hg16 mi
1:00 PM56 °FCool.3 mph100%30.16 "HgN/A
12:00 PM55 °FCool.2 mph91%30.16 "HgN/A
Weather by CustomWeather, © 2016

See weather overviewHow to use our weather pages